Location: Civís
(42.4648°N, 1.4232°E)
Time: 17:22:45
(UTC+00:00)

Meteor 2-3 Rocket - Pass Details

Date: 08 August 2025
Orbit: 844 x 881 km, 81.2° (Epoch: 13 April)

Event Time Altitude Azimuth Distance (km) Brightness Sun altitude
Exits shadow 20:37:19 17° 164° (SSE) 2,062 5.2 -15.4°
Maximum altitude 20:41:34 51° 94° (E) 1,080 3.9 -16.0°
Drops below altitude 10° 20:47:02 10° 20° (NNE) 2,498 6.4 -16.7°
Sets 20:49:30 0° 16° (NNE) 3,434 7.2 -17.1°
